Time,TemperatureF,DewpointF,PressureIn,WindDirection,WindDirectionDegrees,WindSpeedMPH,WindSpeedGustMPH,Humidity,HourlyPrecipIn,Conditions,Clouds,dailyrainin,SoftwareType,DateUTC
2013-09-13 00:00:00,67.5,66.9,29.71,West,265,0.0,0.0,98,0.00,,---,1.34,VWS V14.01,2013-09-13 04:00:00,
2013-09-13 00:01:00,67.5,66.9,29.71,West,266,0.0,0.0,98,0.00,,---,1.34,VWS V14.01,2013-09-13 04:01:00,
2013-09-13 00:06:00,67.5,66.9,29.71,West,265,0.0,0.0,98,0.00,,---,0.00,VWS V14.01,2013-09-13 04:06:00,
2013-09-13 00:11:00,67.5,66.9,29.71,West,266,0.0,0.0,98,0.00,,---,0.00,VWS V14.01,2013-09-13 04:11:00,
2013-09-13 00:16:00,67.4,66.8,29.70,West,266,0.0,0.0,98,0.00,,---,0.00,VWS V14.01,2013-09-13 04:16:00,
2013-09-13 00:21:00,67.4,66.8,29.70,West,266,0.0,0.0,98,0.00,,---,0.00,VWS V14.01,2013-09-13 04:21:00,
2013-09-13 00:26:00,67.3,66.7,29.70,West,266,0.0,0.0,98,0.00,,---,0.00,VWS V14.01,2013-09-13 04:26:00,
2013-09-13 00:31:00,67.3,66.7,29.70,West,266,0.0,0.0,98,0.00,,---,0.00,VWS V14.01,2013-09-13 04:31:00,
2013-09-13 00:36:00,67.3,66.7,29.70,West,266,0.0,0.0,98,0.00,,---,0.00,VWS V14.01,2013-09-13 04:36:00,
2013-09-13 00:41:00,67.3,66.7,29.69,West,266,0.0,0.0,98,0.00,,---,0.00,VWS V14.01,2013-09-13 04:41:00,
2013-09-13 00:46:00,67.3,66.7,29.69,West,266,0.0,0.0,98,0.00,,---,0.00,VWS V14.01,2013-09-13 04:46:00,
2013-09-13 00:51:00,67.4,66.8,29.69,West,266,0.0,0.0,98,0.00,,---,0.00,VWS V14.01,2013-09-13 04:51:00,
2013-09-13 00:56:00,67.3,66.7,29.69,West,266,0.0,0.0,98,0.00,,---,0.00,VWS V14.01,2013-09-13 04:56:00,
2013-09-13 01:01:00,67.4,66.8,29.69,West,266,0.0,0.0,98,0.00,,---,0.00,VWS V14.01,2013-09-13 05:01:00,
2013-09-13 01:06:00,67.4,66.8,29.69,West,266,0.0,0.0,98,0.00,,---,0.00,VWS V14.01,2013-09-13 05:06:00,
2013-09-13 01:11:00,67.3,66.7,29.68,West,266,0.0,0.0,98,0.00,,---,0.00,VWS V14.01,2013-09-13 05:11:00,
2013-09-13 01:16:00,67.2,66.6,29.68,West,265,0.0,0.0,98,0.00,,---,0.00,VWS V14.01,2013-09-13 05:16:00,
2013-09-13 01:21:00,67.2,66.6,29.68,West,266,0.0,0.0,98,0.00,,---,0.00,VWS V14.01,2013-09-13 05:21:00,
2013-09-13 01:26:00,67.2,66.6,29.68,West,265,0.0,0.0,98,0.00,,---,0.00,VWS V14.01,2013-09-13 05:26:00,
2013-09-13 01:31:00,67.1,66.5,29.68,West,265,0.0,0.0,98,0.00,,---,0.00,VWS V14.01,2013-09-13 05:31:00,
2013-09-13 01:36:00,66.9,66.3,29.68,West,265,0.0,0.0,98,0.00,,---,0.00,VWS V14.01,2013-09-13 05:36:00,
2013-09-13 01:41:00,66.8,66.2,29.68,West,266,0.0,0.0,98,0.00,,---,0.00,VWS V14.01,2013-09-13 05:41:00,
2013-09-13 01:46:00,66.8,66.2,29.67,West,265,0.0,0.0,98,0.00,,---,0.00,VWS V14.01,2013-09-13 05:46:00,
2013-09-13 01:51:00,66.8,66.2,29.68,West,266,0.0,0.0,98,0.00,,---,0.00,VWS V14.01,2013-09-13 05:51:00,
2013-09-13 01:56:00,66.9,66.3,29.67,West,265,0.0,0.0,98,0.00,,---,0.00,VWS V14.01,2013-09-13 05:56:00,
2013-09-13 02:01:00,66.8,66.2,29.67,West,265,0.0,0.0,98,0.00,,---,0.00,VWS V14.01,2013-09-13 06:01:00,
2013-09-13 02:06:00,66.8,66.2,29.67,West,266,0.0,0.0,98,0.00,,---,0.00,VWS V14.01,2013-09-13 06:06:00,
2013-09-13 02:11:00,66.8,66.2,29.67,West,265,0.0,0.0,98,0.00,,---,0.00,VWS V14.01,2013-09-13 06:11:00,
2013-09-13 02:16:00,66.6,66.0,29.67,West,265,0.0,0.0,98,0.00,,---,0.00,VWS V14.01,2013-09-13 06:16:00,
2013-09-13 02:21:00,66.5,65.9,29.67,West,276,0.0,0.0,98,0.00,,---,0.00,VWS V14.01,2013-09-13 06:21:00,
2013-09-13 02:26:00,66.5,65.9,29.67,WNW,293,0.0,0.0,98,0.00,,---,0.00,VWS V14.01,2013-09-13 06:26:00,
2013-09-13 02:31:00,66.3,65.7,29.67,West,264,0.0,0.0,98,0.00,,---,0.00,VWS V14.01,2013-09-13 06:31:00,
2013-09-13 02:36:00,66.2,65.6,29.67,SSE,159,1.0,2.0,98,0.00,,---,0.00,VWS V14.01,2013-09-13 06:36:00,
2013-09-13 02:41:00,66.2,65.6,29.66,WSW,238,1.0,2.0,98,0.01,,---,0.01,VWS V14.01,2013-09-13 06:41:00,
2013-09-13 02:46:00,66.2,65.6,29.66,West,269,0.0,2.0,98,0.01,,---,0.01,VWS V14.01,2013-09-13 06:46:00,
2013-09-13 02:51:00,66.2,65.6,29.66,West,259,0.0,2.0,98,0.01,,---,0.01,VWS V14.01,2013-09-13 06:51:00,
2013-09-13 02:56:00,66.2,65.6,29.65,SSE,150,0.0,2.0,98,0.01,,---,0.01,VWS V14.01,2013-09-13 06:56:00,
2013-09-13 03:01:00,66.2,65.6,29.64,SSE,150,0.0,0.0,98,0.01,,---,0.01,VWS V14.01,2013-09-13 07:01:00,
2013-09-13 03:06:00,66.2,65.6,29.64,SSE,150,0.0,0.0,98,0.01,,---,0.01,VWS V14.01,2013-09-13 07:06:00,
2013-09-13 03:11:00,66.2,65.6,29.64,SSE,150,0.0,0.0,98,0.01,,---,0.01,VWS V14.01,2013-09-13 07:11:00,
2013-09-13 03:16:00,66.2,65.6,29.64,SSE,150,0.0,0.0,98,0.01,,---,0.01,VWS V14.01,2013-09-13 07:16:00,
2013-09-13 03:21:00,66.2,65.6,29.65,SW,228,0.0,0.0,98,0.01,,---,0.01,VWS V14.01,2013-09-13 07:21:00,
2013-09-13 03:26:00,66.1,65.5,29.65,WNW,283,1.0,1.0,98,0.01,,---,0.01,VWS V14.01,2013-09-13 07:26:00,
2013-09-13 03:31:00,65.9,65.3,29.65,West,276,0.0,0.0,98,0.02,,---,0.02,VWS V14.01,2013-09-13 07:31:00,
2013-09-13 03:36:00,65.8,65.2,29.65,WNW,288,0.0,1.0,98,0.02,,---,0.02,VWS V14.01,2013-09-13 07:36:00,
2013-09-13 03:41:00,65.8,65.2,29.65,WNW,303,0.0,1.0,98,0.02,,---,0.02,VWS V14.01,2013-09-13 07:41:00,
2013-09-13 03:46:00,65.7,65.1,29.64,NW,304,0.0,1.0,98,0.02,,---,0.02,VWS V14.01,2013-09-13 07:46:00,
2013-09-13 03:51:00,65.7,65.1,29.65,SE,146,0.0,1.0,98,0.02,,---,0.02,VWS V14.01,2013-09-13 07:51:00,
2013-09-13 03:56:00,65.7,65.1,29.65,SE,146,0.0,1.0,98,0.02,,---,0.02,VWS V14.01,2013-09-13 07:56:00,
2013-09-13 04:01:00,65.8,65.2,29.65,SE,145,0.0,0.0,98,0.01,,---,0.02,VWS V14.01,2013-09-13 08:01:00,
2013-09-13 04:06:00,65.8,65.2,29.65,SW,232,0.0,0.0,98,0.01,,---,0.02,VWS V14.01,2013-09-13 08:06:00,
2013-09-13 04:11:00,65.8,65.2,29.65,SW,232,0.0,0.0,98,0.01,,---,0.02,VWS V14.01,2013-09-13 08:11:00,
2013-09-13 04:16:00,65.8,65.2,29.66,WSW,252,1.0,1.0,98,0.01,,---,0.02,VWS V14.01,2013-09-13 08:16:00,
2013-09-13 04:21:00,65.8,65.2,29.66,West,277,0.0,1.0,98,0.01,,---,0.02,VWS V14.01,2013-09-13 08:21:00,
2013-09-13 04:26:00,65.6,65.0,29.66,West,277,0.0,2.0,98,0.01,,---,0.02,VWS V14.01,2013-09-13 08:26:00,
2013-09-13 04:31:00,65.4,64.8,29.66,West,277,0.0,0.0,98,0.00,,---,0.02,VWS V14.01,2013-09-13 08:31:00,
2013-09-13 04:36:00,65.4,64.8,29.66,WSW,253,1.0,1.0,98,0.00,,---,0.02,VWS V14.01,2013-09-13 08:36:00,
2013-09-13 04:41:00,65.4,64.8,29.66,WSW,250,0.0,1.0,98,0.00,,---,0.02,VWS V14.01,2013-09-13 08:41:00,
2013-09-13 04:46:00,65.4,64.8,29.65,WSW,250,0.0,1.0,98,0.00,,---,0.02,VWS V14.01,2013-09-13 08:46:00,
2013-09-13 04:51:00,65.3,64.7,29.65,WSW,250,0.0,1.0,98,0.00,,---,0.02,VWS V14.01,2013-09-13 08:51:00,
2013-09-13 04:56:00,65.2,64.6,29.65,WSW,250,0.0,1.0,98,0.00,,---,0.02,VWS V14.01,2013-09-13 08:56:00,
2013-09-13 05:01:00,65.1,64.5,29.65,WSW,250,0.0,0.0,98,0.00,,---,0.02,VWS V14.01,2013-09-13 09:01:00,
2013-09-13 05:06:00,65.1,64.5,29.65,WSW,250,0.0,0.0,98,0.00,,---,0.02,VWS V14.01,2013-09-13 09:06:00,
2013-09-13 05:11:00,65.0,64.4,29.65,WSW,250,0.0,0.0,98,0.00,,---,0.02,VWS V14.01,2013-09-13 09:11:00,
2013-09-13 05:16:00,64.9,64.3,29.65,WSW,250,0.0,0.0,98,0.00,,---,0.02,VWS V14.01,2013-09-13 09:16:00,
2013-09-13 05:21:00,64.8,64.2,29.65,WSW,250,0.0,0.0,98,0.00,,---,0.02,VWS V14.01,2013-09-13 09:21:00,
2013-09-13 05:26:00,64.7,64.1,29.65,WSW,250,0.0,0.0,98,0.00,,---,0.02,VWS V14.01,2013-09-13 09:26:00,
2013-09-13 05:31:00,64.6,64.0,29.66,WSW,250,0.0,0.0,98,0.00,,---,0.02,VWS V14.01,2013-09-13 09:31:00,
2013-09-13 05:36:00,64.6,64.0,29.66,WSW,250,0.0,0.0,98,0.00,,---,0.02,VWS V14.01,2013-09-13 09:36:00,
2013-09-13 05:41:00,64.6,64.0,29.66,WSW,250,0.0,0.0,98,0.00,,---,0.02,VWS V14.01,2013-09-13 09:41:00,
2013-09-13 05:46:00,64.5,63.9,29.66,WSW,250,0.0,1.0,98,0.00,,---,0.02,VWS V14.01,2013-09-13 09:46:00,
2013-09-13 05:51:00,64.5,63.9,29.66,West,277,0.0,2.0,98,0.00,,---,0.02,VWS V14.01,2013-09-13 09:51:00,
2013-09-13 05:56:00,64.6,64.0,29.66,West,277,0.0,2.0,98,0.00,,---,0.02,VWS V14.01,2013-09-13 09:56:00,
2013-09-13 06:01:00,64.5,63.9,29.66,West,277,0.0,1.0,98,0.00,,---,0.02,VWS V14.01,2013-09-13 10:01:00,
2013-09-13 06:06:00,64.6,64.0,29.66,West,269,0.0,1.0,98,0.00,,---,0.02,VWS V14.01,2013-09-13 10:06:00,
2013-09-13 06:11:00,64.6,64.0,29.66,West,274,0.0,1.0,98,0.00,,---,0.02,VWS V14.01,2013-09-13 10:11:00,
2013-09-13 06:16:00,64.6,64.0,29.66,West,274,0.0,1.0,98,0.00,,---,0.02,VWS V14.01,2013-09-13 10:16:00,
2013-09-13 06:21:00,64.6,64.0,29.66,West,276,0.0,1.0,98,0.00,,---,0.02,VWS V14.01,2013-09-13 10:21:00,
2013-09-13 06:26:00,64.5,63.9,29.67,NNW,327,1.0,3.0,98,0.00,,---,0.02,VWS V14.01,2013-09-13 10:26:00,
2013-09-13 06:31:00,64.6,64.0,29.67,WNW,302,0.0,0.0,98,0.00,,---,0.02,VWS V14.01,2013-09-13 10:31:00,
2013-09-13 06:36:00,64.6,64.0,29.67,WNW,282,1.0,3.0,98,0.00,,---,0.02,VWS V14.01,2013-09-13 10:36:00,
2013-09-13 06:41:00,64.6,64.0,29.67,WNW,298,1.0,4.0,98,0.00,,---,0.02,VWS V14.01,2013-09-13 10:41:00,
2013-09-13 06:46:00,64.5,63.6,29.67,NW,321,2.0,4.0,97,0.00,,---,0.02,VWS V14.01,2013-09-13 10:46:00,
2013-09-13 06:51:00,64.5,63.6,29.68,North,4,2.0,4.0,97,0.00,,---,0.02,VWS V14.01,2013-09-13 10:51:00,
2013-09-13 06:56:00,64.3,62.8,29.68,NNW,337,2.0,4.0,95,0.00,,---,0.02,VWS V14.01,2013-09-13 10:56:00,
2013-09-13 07:01:00,64.3,62.8,29.67,NNW,329,1.0,1.0,95,0.01,,---,0.03,VWS V14.01,2013-09-13 11:01:00,
2013-09-13 07:06:00,64.2,62.7,29.67,NW,317,0.0,2.0,95,0.01,,---,0.03,VWS V14.01,2013-09-13 11:06:00,
2013-09-13 07:11:00,63.9,62.4,29.67,NNW,342,0.0,3.0,95,0.01,,---,0.03,VWS V14.01,2013-09-13 11:11:00,
2013-09-13 07:16:00,63.8,62.3,29.67,NNW,330,0.0,3.0,95,0.01,,---,0.03,VWS V14.01,2013-09-13 11:16:00,
2013-09-13 07:21:00,63.6,61.8,29.68,NW,312,0.0,3.0,94,0.01,,---,0.03,VWS V14.01,2013-09-13 11:21:00,
2013-09-13 07:26:00,63.6,61.5,29.68,WNW,297,1.0,3.0,93,0.01,,---,0.03,VWS V14.01,2013-09-13 11:26:00,
2013-09-13 07:31:00,63.8,61.7,29.68,WNW,291,1.0,1.0,93,0.01,,---,0.03,VWS V14.01,2013-09-13 11:31:00,
2013-09-13 07:36:00,63.9,61.8,29.68,NW,307,1.0,1.0,93,0.01,,---,0.03,VWS V14.01,2013-09-13 11:36:00,
2013-09-13 07:41:00,63.9,62.1,29.68,SW,221,1.0,2.0,94,0.01,,---,0.03,VWS V14.01,2013-09-13 11:41:00,
2013-09-13 07:46:00,63.9,62.1,29.68,SW,221,0.0,2.0,94,0.01,,---,0.03,VWS V14.01,2013-09-13 11:46:00,
2013-09-13 07:51:00,63.9,62.1,29.68,SW,221,0.0,2.0,94,0.01,,---,0.03,VWS V14.01,2013-09-13 11:51:00,
2013-09-13 07:56:00,64.1,61.7,29.68,West,280,0.0,4.0,92,0.01,,---,0.03,VWS V14.01,2013-09-13 11:56:00,
2013-09-13 08:01:00,64.3,61.6,29.68,WNW,295,0.0,0.0,91,0.00,,---,0.03,VWS V14.01,2013-09-13 12:01:00,
2013-09-13 08:06:00,64.5,61.8,29.68,NNW,327,0.0,3.0,91,0.00,,---,0.03,VWS V14.01,2013-09-13 12:06:00,
2013-09-13 08:11:00,64.7,62.0,29.68,WNW,301,2.0,4.0,91,0.00,,---,0.03,VWS V14.01,2013-09-13 12:11:00,
2013-09-13 08:16:00,64.8,61.8,29.68,NNW,340,2.0,4.0,90,0.00,,---,0.03,VWS V14.01,2013-09-13 12:16:00,
2013-09-13 08:21:00,64.9,61.9,29.68,NNW,337,1.0,5.0,90,0.00,,---,0.03,VWS V14.01,2013-09-13 12:21:00,
2013-09-13 08:26:00,64.7,61.7,29.68,NNW,332,0.0,5.0,90,0.00,,---,0.03,VWS V14.01,2013-09-13 12:26:00,
2013-09-13 08:31:00,64.7,61.7,29.68,North,360,0.0,0.0,90,0.00,,---,0.03,VWS V14.01,2013-09-13 12:31:00,
2013-09-13 08:36:00,64.7,61.1,29.68,WSW,238,1.0,5.0,88,0.00,,---,0.03,VWS V14.01,2013-09-13 12:36:00,
2013-09-13 08:41:00,64.9,61.6,29.68,WNW,287,1.0,5.0,89,0.00,,---,0.03,VWS V14.01,2013-09-13 12:41:00,
2013-09-13 08:46:00,64.8,61.2,29.68,NNW,335,0.0,5.0,88,0.00,,---,0.03,VWS V14.01,2013-09-13 12:46:00,
2013-09-13 08:51:00,64.9,61.6,29.68,West,270,0.0,5.0,89,0.00,,---,0.03,VWS V14.01,2013-09-13 12:51:00,
2013-09-13 08:56:00,65.0,61.4,29.67,WSW,245,1.0,5.0,88,0.00,,---,0.03,VWS V14.01,2013-09-13 12:56:00,
2013-09-13 09:01:00,65.3,61.7,29.68,WSW,258,2.0,5.0,88,0.00,,---,0.03,VWS V14.01,2013-09-13 13:01:00,
2013-09-13 09:06:00,65.6,61.3,29.68,SSW,211,1.0,6.0,86,0.00,,---,0.03,VWS V14.01,2013-09-13 13:06:00,
2013-09-13 09:11:00,65.8,61.2,29.67,NW,307,1.0,6.0,85,0.00,,---,0.03,VWS V14.01,2013-09-13 13:11:00,
2013-09-13 09:16:00,66.0,61.4,29.68,NNW,328,0.0,6.0,85,0.00,,---,0.03,VWS V14.01,2013-09-13 13:16:00,
2013-09-13 09:21:00,66.1,61.8,29.67,NW,311,1.0,6.0,86,0.00,,---,0.03,VWS V14.01,2013-09-13 13:21:00,
2013-09-13 09:26:00,66.4,61.1,29.67,WSW,249,0.0,8.0,83,0.00,,---,0.03,VWS V14.01,2013-09-13 13:26:00,
2013-09-13 09:31:00,66.7,61.4,29.67,SE,129,1.0,8.0,83,0.00,,---,0.03,VWS V14.01,2013-09-13 13:31:00,
2013-09-13 09:36:00,67.1,61.4,29.68,WNW,285,2.0,4.0,82,0.00,,---,0.03,VWS V14.01,2013-09-13 13:36:00,
2013-09-13 09:41:00,67.5,61.8,29.68,SE,138,0.0,4.0,82,0.00,,---,0.03,VWS V14.01,2013-09-13 13:41:00,
2013-09-13 09:46:00,67.7,61.0,29.68,NW,311,0.0,7.0,79,0.00,,---,0.03,VWS V14.01,2013-09-13 13:46:00,
2013-09-13 09:51:00,67.8,61.4,29.67,NW,322,0.0,7.0,80,0.00,,---,0.03,VWS V14.01,2013-09-13 13:51:00,
2013-09-13 09:56:00,67.8,61.8,29.67,West,273,2.0,7.0,81,0.00,,---,0.03,VWS V14.01,2013-09-13 13:56:00,
2013-09-13 10:01:00,67.8,60.7,29.68,WNW,284,2.0,7.0,78,0.00,,---,0.03,VWS V14.01,2013-09-13 14:01:00,
2013-09-13 10:06:00,67.7,60.2,29.69,WNW,293,2.0,5.0,77,0.00,,---,0.03,VWS V14.01,2013-09-13 14:06:00,
2013-09-13 10:11:00,67.7,60.6,29.69,NNW,347,0.0,5.0,78,0.00,,---,0.03,VWS V14.01,2013-09-13 14:11:00,
2013-09-13 10:16:00,67.7,61.0,29.69,WNW,300,0.0,5.0,79,0.00,,---,0.03,VWS V14.01,2013-09-13 14:16:00,
2013-09-13 10:21:00,67.6,60.5,29.69,WNW,290,2.0,10.0,78,0.00,,---,0.03,VWS V14.01,2013-09-13 14:21:00,
2013-09-13 10:26:00,67.6,60.5,29.69,West,271,3.0,10.0,78,0.00,,---,0.03,VWS V14.01,2013-09-13 14:26:00,
2013-09-13 10:31:00,67.5,60.8,29.69,WNW,288,4.0,10.0,79,0.00,,---,0.03,VWS V14.01,2013-09-13 14:31:00,
2013-09-13 10:36:00,67.5,60.8,29.69,West,271,4.0,5.0,79,0.00,,---,0.03,VWS V14.01,2013-09-13 14:36:00,
2013-09-13 10:41:00,67.4,60.3,29.69,NNE,26,4.0,5.0,78,0.00,,---,0.03,VWS V14.01,2013-09-13 14:41:00,
2013-09-13 10:46:00,67.3,60.6,29.69,West,264,1.0,5.0,79,0.00,,---,0.03,VWS V14.01,2013-09-13 14:46:00,
2013-09-13 10:51:00,67.3,60.6,29.69,WNW,295,2.0,5.0,79,0.00,,---,0.03,VWS V14.01,2013-09-13 14:51:00,
2013-09-13 10:56:00,67.2,60.1,29.69,WNW,302,4.0,5.0,78,0.00,,---,0.03,VWS V14.01,2013-09-13 14:56:00,
2013-09-13 11:01:00,67.2,59.8,29.69,WNW,283,3.0,6.0,77,0.00,,---,0.03,VWS V14.01,2013-09-13 15:01:00,
2013-09-13 11:06:00,67.2,60.1,29.69,NW,316,3.0,5.0,78,0.00,,---,0.03,VWS V14.01,2013-09-13 15:06:00,
2013-09-13 11:11:00,67.3,60.2,29.69,West,280,2.0,5.0,78,0.00,,---,0.03,VWS V14.01,2013-09-13 15:11:00,
2013-09-13 11:16:00,67.5,60.4,29.69,WNW,290,4.0,7.0,78,0.00,,---,0.03,VWS V14.01,2013-09-13 15:16:00,
2013-09-13 11:21:00,67.7,60.6,29.70,NW,307,0.0,7.0,78,0.00,,---,0.03,VWS V14.01,2013-09-13 15:21:00,
2013-09-13 11:26:00,67.9,60.4,29.70,NW,308,4.0,7.0,77,0.00,,---,0.03,VWS V14.01,2013-09-13 15:26:00,
2013-09-13 11:31:00,67.9,60.1,29.70,North,360,6.0,8.0,76,0.00,,---,0.03,VWS V14.01,2013-09-13 15:31:00,
2013-09-13 11:36:00,67.9,59.7,29.70,WNW,301,5.0,8.0,75,0.00,,---,0.03,VWS V14.01,2013-09-13 15:36:00,
2013-09-13 11:41:00,67.9,59.7,29.70,NW,317,2.0,8.0,75,0.00,,---,0.03,VWS V14.01,2013-09-13 15:41:00,
2013-09-13 11:46:00,68.0,59.8,29.71,West,270,1.0,8.0,75,0.00,,---,0.03,VWS V14.01,2013-09-13 15:46:00,
2013-09-13 11:51:00,68.1,61.0,29.70,NNE,13,1.0,8.0,78,0.00,,---,0.03,VWS V14.01,2013-09-13 15:51:00,
2013-09-13 11:56:00,68.2,60.3,29.70,NW,323,1.0,8.0,76,0.00,,---,0.03,VWS V14.01,2013-09-13 15:56:00,
2013-09-13 12:01:00,68.3,60.1,29.70,West,263,3.0,8.0,75,0.00,,---,0.03,VWS V14.01,2013-09-13 16:01:00,
2013-09-13 12:06:00,68.5,60.3,29.69,North,1,2.0,3.0,75,0.00,,---,0.03,VWS V14.01,2013-09-13 16:06:00,
2013-09-13 12:11:00,68.5,60.3,29.70,WNW,300,1.0,6.0,75,0.00,,---,0.03,VWS V14.01,2013-09-13 16:11:00,
2013-09-13 12:16:00,68.8,60.6,29.69,SW,235,2.0,6.0,75,0.00,,---,0.03,VWS V14.01,2013-09-13 16:16:00,
2013-09-13 12:21:00,68.9,60.3,29.70,NNW,335,0.0,6.0,74,0.00,,---,0.03,VWS V14.01,2013-09-13 16:21:00,
2013-09-13 12:26:00,68.9,59.9,29.69,NNW,342,0.0,6.0,73,0.00,,---,0.03,VWS V14.01,2013-09-13 16:26:00,
2013-09-13 12:31:00,69.1,60.1,29.69,West,281,2.0,6.0,73,0.00,,---,0.03,VWS V14.01,2013-09-13 16:31:00,
2013-09-13 12:36:00,69.5,60.1,29.69,NNE,27,4.0,4.0,72,0.00,,---,0.03,VWS V14.01,2013-09-13 16:36:00,
2013-09-13 12:41:00,69.4,59.6,29.69,West,273,4.0,7.0,71,0.00,,---,0.03,VWS V14.01,2013-09-13 16:41:00,
2013-09-13 12:46:00,69.4,60.0,29.69,WSW,238,3.0,7.0,72,0.00,,---,0.03,VWS V14.01,2013-09-13 16:46:00,
2013-09-13 12:51:00,69.5,60.1,29.69,West,278,1.0,7.0,72,0.00,,---,0.03,VWS V14.01,2013-09-13 16:51:00,
2013-09-13 12:56:00,69.7,60.3,29.69,NNW,332,3.0,7.0,72,0.00,,---,0.03,VWS V14.01,2013-09-13 16:56:00,
2013-09-13 13:01:00,70.1,61.0,29.68,West,274,2.0,7.0,73,0.00,,---,0.03,VWS V14.01,2013-09-13 17:01:00,
2013-09-13 13:06:00,70.5,60.3,29.69,NW,304,2.0,7.0,70,0.00,,---,0.03,VWS V14.01,2013-09-13 17:06:00,
2013-09-13 13:11:00,71.1,60.8,29.68,NW,312,2.0,7.0,70,0.00,,---,0.03,VWS V14.01,2013-09-13 17:11:00,
2013-09-13 13:16:00,71.8,60.7,29.68,NW,309,3.0,7.0,68,0.00,,---,0.03,VWS V14.01,2013-09-13 17:16:00,
2013-09-13 13:21:00,72.1,60.1,29.68,West,264,1.0,8.0,66,0.00,,---,0.03,VWS V14.01,2013-09-13 17:21:00,
2013-09-13 13:26:00,72.2,60.7,29.68,North,11,3.0,8.0,67,0.00,,---,0.03,VWS V14.01,2013-09-13 17:26:00,
2013-09-13 13:31:00,72.4,60.8,29.67,North,1,3.0,8.0,67,0.00,,---,0.03,VWS V14.01,2013-09-13 17:31:00,
2013-09-13 13:36:00,72.6,59.7,29.67,NE,34,0.0,6.0,64,0.00,,---,0.03,VWS V14.01,2013-09-13 17:36:00,
2013-09-13 13:41:00,72.8,59.9,29.67,West,276,0.0,7.0,64,0.00,,---,0.03,VWS V14.01,2013-09-13 17:41:00,
2013-09-13 13:46:00,73.0,58.8,29.67,NW,317,3.0,8.0,61,0.00,,---,0.03,VWS V14.01,2013-09-13 17:46:00,
2013-09-13 13:51:00,73.1,59.3,29.67,NNW,337,2.0,8.0,62,0.00,,---,0.03,VWS V14.01,2013-09-13 17:51:00,
2013-09-13 13:56:00,73.3,60.8,29.67,SE,127,1.0,11.0,65,0.00,,---,0.03,VWS V14.01,2013-09-13 17:56:00,
2013-09-13 14:01:00,74.1,60.7,29.67,ENE,65,1.0,11.0,63,0.00,,---,0.03,VWS V14.01,2013-09-13 18:01:00,
2013-09-13 14:06:00,73.9,59.6,29.67,NNE,18,1.0,2.0,61,0.00,,---,0.03,VWS V14.01,2013-09-13 18:06:00,
2013-09-13 14:11:00,74.0,59.7,29.67,West,271,2.0,3.0,61,0.00,,---,0.03,VWS V14.01,2013-09-13 18:11:00,
2013-09-13 14:16:00,74.4,59.2,29.67,NNE,15,2.0,4.0,59,0.00,,---,0.03,VWS V14.01,2013-09-13 18:16:00,
2013-09-13 14:21:00,74.2,58.5,29.66,East,84,2.0,9.0,58,0.00,,---,0.03,VWS V14.01,2013-09-13 18:21:00,
2013-09-13 14:26:00,73.5,58.8,29.67,WNW,284,4.0,9.0,60,0.00,,---,0.03,VWS V14.01,2013-09-13 18:26:00,
2013-09-13 14:31:00,72.7,58.9,29.67,West,274,4.0,9.0,62,0.00,,---,0.03,VWS V14.01,2013-09-13 18:31:00,
2013-09-13 14:36:00,72.2,58.9,29.67,NW,311,3.0,7.0,63,0.00,,---,0.03,VWS V14.01,2013-09-13 18:36:00,
2013-09-13 14:41:00,72.4,59.1,29.67,NW,320,2.0,7.0,63,0.00,,---,0.03,VWS V14.01,2013-09-13 18:41:00,
2013-09-13 14:46:00,73.1,58.9,29.67,WSW,257,3.0,7.0,61,0.00,,---,0.03,VWS V14.01,2013-09-13 18:46:00,
2013-09-13 14:51:00,73.1,59.8,29.67,NW,326,2.0,7.0,63,0.00,,---,0.03,VWS V14.01,2013-09-13 18:51:00,
2013-09-13 14:56:00,73.0,59.2,29.67,NNW,343,2.0,7.0,62,0.00,,---,0.03,VWS V14.01,2013-09-13 18:56:00,
2013-09-13 15:01:00,72.9,59.6,29.67,West,276,4.0,7.0,63,0.00,,---,0.03,VWS V14.01,2013-09-13 19:01:00,
2013-09-13 15:06:00,72.8,58.6,29.68,WNW,283,3.0,8.0,61,0.00,,---,0.03,VWS V14.01,2013-09-13 19:06:00,
2013-09-13 15:11:00,72.5,58.3,29.68,NW,320,6.0,10.0,61,0.00,,---,0.03,VWS V14.01,2013-09-13 19:11:00,
2013-09-13 15:16:00,72.2,58.5,29.68,NW,321,5.0,13.0,62,0.00,,---,0.03,VWS V14.01,2013-09-13 19:16:00,
2013-09-13 15:21:00,71.5,58.3,29.69,North,11,2.0,13.0,63,0.00,,---,0.03,VWS V14.01,2013-09-13 19:21:00,
2013-09-13 15:26:00,71.8,59.4,29.69,North,10,3.0,13.0,65,0.00,,---,0.03,VWS V14.01,2013-09-13 19:26:00,
2013-09-13 15:31:00,72.0,58.7,29.68,NNE,29,2.0,13.0,63,0.00,,---,0.03,VWS V14.01,2013-09-13 19:31:00,
2013-09-13 15:36:00,72.1,58.8,29.68,NNE,12,2.0,6.0,63,0.00,,---,0.03,VWS V14.01,2013-09-13 19:36:00,
2013-09-13 15:41:00,72.2,59.4,29.69,NNE,18,2.0,6.0,64,0.00,,---,0.03,VWS V14.01,2013-09-13 19:41:00,
2013-09-13 15:46:00,72.3,58.1,29.69,North,360,6.0,11.0,61,0.00,,---,0.03,VWS V14.01,2013-09-13 19:46:00,
2013-09-13 15:51:00,72.3,57.7,29.69,North,5,5.0,11.0,60,0.00,,---,0.03,VWS V14.01,2013-09-13 19:51:00,
2013-09-13 15:56:00,72.4,58.2,29.69,NW,311,6.0,11.0,61,0.00,,---,0.03,VWS V14.01,2013-09-13 19:56:00,
2013-09-13 16:01:00,72.2,57.1,29.69,West,278,4.0,11.0,59,0.00,,---,0.03,VWS V14.01,2013-09-13 20:01:00,
2013-09-13 16:06:00,71.6,56.5,29.70,North,1,1.0,10.0,59,0.00,,---,0.03,VWS V14.01,2013-09-13 20:06:00,
2013-09-13 16:11:00,71.4,57.7,29.70,West,262,5.0,10.0,62,0.00,,---,0.03,VWS V14.01,2013-09-13 20:11:00,
2013-09-13 16:16:00,71.4,57.3,29.70,WNW,283,5.0,10.0,61,0.00,,---,0.03,VWS V14.01,2013-09-13 20:16:00,
2013-09-13 16:21:00,71.4,57.3,29.70,WNW,285,7.0,10.0,61,0.00,,---,0.03,VWS V14.01,2013-09-13 20:21:00,
2013-09-13 16:26:00,71.2,57.1,29.71,NW,318,2.0,12.0,61,0.00,,---,0.03,VWS V14.01,2013-09-13 20:26:00,
2013-09-13 16:31:00,71.3,57.6,29.71,NNW,333,3.0,12.0,62,0.00,,---,0.03,VWS V14.01,2013-09-13 20:31:00,
2013-09-13 16:36:00,71.2,56.6,29.71,NNE,18,2.0,6.0,60,0.00,,---,0.03,VWS V14.01,2013-09-13 20:36:00,
2013-09-13 16:41:00,70.9,55.9,29.71,North,349,6.0,7.0,59,0.00,,---,0.03,VWS V14.01,2013-09-13 20:41:00,
2013-09-13 16:46:00,70.7,54.7,29.72,NW,326,2.0,8.0,57,0.00,,---,0.03,VWS V14.01,2013-09-13 20:46:00,
2013-09-13 16:51:00,70.4,54.9,29.72,North,9,6.0,8.0,58,0.00,,---,0.03,VWS V14.01,2013-09-13 20:51:00,
2013-09-13 16:56:00,70.1,54.2,29.72,NNE,22,3.0,8.0,57,0.00,,---,0.03,VWS V14.01,2013-09-13 20:56:00,
2013-09-13 17:01:00,70.0,55.0,29.72,WNW,302,5.0,8.0,59,0.00,,---,0.03,VWS V14.01,2013-09-13 21:01:00,
2013-09-13 17:06:00,69.9,56.3,29.72,WNW,302,5.0,9.0,62,0.00,,---,0.03,VWS V14.01,2013-09-13 21:06:00,
2013-09-13 17:11:00,69.8,56.2,29.72,WNW,287,6.0,11.0,62,0.00,,---,0.03,VWS V14.01,2013-09-13 21:11:00,
2013-09-13 17:16:00,69.5,56.8,29.73,NW,313,7.0,11.0,64,0.00,,---,0.03,VWS V14.01,2013-09-13 21:16:00,
2013-09-13 17:21:00,68.9,56.2,29.73,NW,316,4.0,11.0,64,0.00,,---,0.03,VWS V14.01,2013-09-13 21:21:00,
2013-09-13 17:26:00,68.3,56.1,29.74,North,360,6.0,12.0,65,0.00,,---,0.03,VWS V14.01,2013-09-13 21:26:00,
2013-09-13 17:31:00,67.8,55.6,29.74,North,352,3.0,13.0,65,0.00,,---,0.03,VWS V14.01,2013-09-13 21:31:00,
2013-09-13 17:36:00,67.7,55.1,29.74,WNW,297,2.0,7.0,64,0.00,,---,0.03,VWS V14.01,2013-09-13 21:36:00,
2013-09-13 17:41:00,67.8,55.6,29.74,NNE,26,3.0,9.0,65,0.00,,---,0.03,VWS V14.01,2013-09-13 21:41:00,
2013-09-13 17:46:00,67.7,56.0,29.74,NNE,13,3.0,9.0,66,0.00,,---,0.03,VWS V14.01,2013-09-13 21:46:00,
2013-09-13 17:51:00,67.5,55.3,29.74,NW,307,4.0,9.0,65,0.00,,---,0.03,VWS V14.01,2013-09-13 21:51:00,
2013-09-13 17:56:00,67.4,56.5,29.74,NW,323,3.0,9.0,68,0.00,,---,0.03,VWS V14.01,2013-09-13 21:56:00,
2013-09-13 18:01:00,67.2,55.9,29.74,WNW,288,6.0,9.0,67,0.00,,---,0.03,VWS V14.01,2013-09-13 22:01:00,
2013-09-13 18:06:00,66.9,55.2,29.75,WSW,258,6.0,11.0,66,0.00,,---,0.03,VWS V14.01,2013-09-13 22:06:00,
2013-09-13 18:11:00,66.6,55.3,29.75,NNW,342,2.0,11.0,67,0.00,,---,0.03,VWS V14.01,2013-09-13 22:11:00,
2013-09-13 18:16:00,66.5,55.6,29.75,NW,316,2.0,11.0,68,0.00,,---,0.03,VWS V14.01,2013-09-13 22:16:00,
2013-09-13 18:21:00,66.4,54.7,29.75,NNE,27,2.0,12.0,66,0.00,,---,0.03,VWS V14.01,2013-09-13 22:21:00,
2013-09-13 18:26:00,66.2,54.5,29.76,NNE,30,2.0,12.0,66,0.00,,---,0.03,VWS V14.01,2013-09-13 22:26:00,
2013-09-13 18:31:00,65.9,54.7,29.76,NW,319,3.0,12.0,67,0.00,,---,0.03,VWS V14.01,2013-09-13 22:31:00,
2013-09-13 18:36:00,65.7,55.7,29.75,North,359,1.0,3.0,70,0.00,,---,0.03,VWS V14.01,2013-09-13 22:36:00,
2013-09-13 18:41:00,65.4,55.0,29.76,NE,46,0.0,3.0,69,0.00,,---,0.03,VWS V14.01,2013-09-13 22:41:00,
2013-09-13 18:46:00,65.1,54.3,29.76,WNW,285,1.0,5.0,68,0.00,,---,0.03,VWS V14.01,2013-09-13 22:46:00,
2013-09-13 18:51:00,64.9,54.1,29.76,NW,309,2.0,5.0,68,0.00,,---,0.03,VWS V14.01,2013-09-13 22:51:00,
2013-09-13 18:56:00,64.8,54.8,29.76,North,354,1.0,5.0,70,0.00,,---,0.03,VWS V14.01,2013-09-13 22:56:00,
2013-09-13 19:01:00,64.7,54.3,29.76,WNW,288,1.0,5.0,69,0.00,,---,0.03,VWS V14.01,2013-09-13 23:01:00,
2013-09-13 19:06:00,64.5,54.1,29.77,North,8,1.0,3.0,69,0.00,,---,0.03,VWS V14.01,2013-09-13 23:06:00,
2013-09-13 19:11:00,64.4,54.0,29.77,North,11,1.0,6.0,69,0.00,,---,0.03,VWS V14.01,2013-09-13 23:11:00,
2013-09-13 19:16:00,64.3,54.7,29.77,NNW,343,1.0,6.0,71,0.00,,---,0.03,VWS V14.01,2013-09-13 23:16:00,
2013-09-13 19:20:00,64.2,54.6,29.78,North,9,1.0,6.0,71,0.00,,---,0.03,VWS V14.01,2013-09-13 23:20:00,
2013-09-13 19:25:00,64.1,54.5,29.78,NNW,347,2.0,6.0,71,0.00,,---,0.03,VWS V14.01,2013-09-13 23:25:00,
2013-09-13 19:30:00,64.0,53.2,29.79,NNW,343,5.0,6.0,68,0.00,,---,0.03,VWS V14.01,2013-09-13 23:30:00,
2013-09-13 19:35:00,63.7,53.0,29.79,NW,325,2.0,5.0,68,0.00,,---,0.03,VWS V14.01,2013-09-13 23:35:00,
2013-09-13 19:40:00,63.5,53.2,29.80,NE,36,1.0,5.0,69,0.00,,---,0.03,VWS V14.01,2013-09-13 23:40:00,
2013-09-13 19:45:00,63.3,53.0,29.80,NE,53,1.0,5.0,69,0.00,,---,0.03,VWS V14.01,2013-09-13 23:45:00,
2013-09-13 19:50:00,63.0,53.1,29.81,NW,325,1.0,5.0,70,0.00,,---,0.03,VWS V14.01,2013-09-13 23:50:00,
2013-09-13 19:55:00,62.7,52.8,29.81,NNE,30,0.0,5.0,70,0.00,,---,0.03,VWS V14.01,2013-09-13 23:55:00,
2013-09-13 20:00:00,62.5,52.2,29.82,NNW,332,2.0,5.0,69,0.00,,---,0.03,VWS V14.01,2013-09-14 00:00:00,
2013-09-13 20:05:00,62.2,52.7,29.82,NNE,33,0.0,4.0,71,0.00,,---,0.03,VWS V14.01,2013-09-14 00:05:00,
2013-09-13 20:10:00,62.0,52.5,29.82,NW,322,0.0,4.0,71,0.00,,---,0.03,VWS V14.01,2013-09-14 00:10:00,
2013-09-13 20:15:00,61.8,51.9,29.82,North,352,1.0,4.0,70,0.00,,---,0.03,VWS V14.01,2013-09-14 00:15:00,
2013-09-13 20:20:00,61.6,52.1,29.82,NNW,335,3.0,4.0,71,0.00,,---,0.03,VWS V14.01,2013-09-14 00:20:00,
2013-09-13 20:25:00,61.3,51.8,29.82,NNW,347,1.0,4.0,71,0.00,,---,0.03,VWS V14.01,2013-09-14 00:25:00,
2013-09-13 20:30:00,61.1,51.6,29.83,North,360,1.0,4.0,71,0.00,,---,0.03,VWS V14.01,2013-09-14 00:30:00,
2013-09-13 20:35:00,60.9,52.6,29.83,North,357,1.0,2.0,74,0.00,,---,0.03,VWS V14.01,2013-09-14 00:35:00,
2013-09-13 20:40:00,60.6,51.9,29.83,NNE,20,1.0,2.0,73,0.00,,---,0.03,VWS V14.01,2013-09-14 00:40:00,
2013-09-13 20:45:00,60.3,51.2,29.83,NW,326,2.0,2.0,72,0.00,,---,0.03,VWS V14.01,2013-09-14 00:45:00,
2013-09-13 20:50:00,60.1,51.1,29.83,NNW,344,0.0,5.0,72,0.00,,---,0.03,VWS V14.01,2013-09-14 00:50:00,
2013-09-13 20:55:00,60.1,51.4,29.83,NW,326,0.0,5.0,73,0.00,,---,0.03,VWS V14.01,2013-09-14 00:55:00,
2013-09-13 21:00:00,60.0,51.7,29.83,NNW,330,0.0,5.0,74,0.00,,---,0.03,VWS V14.01,2013-09-14 01:00:00,
2013-09-13 21:05:00,59.9,51.2,29.83,NNE,25,0.0,3.0,73,0.00,,---,0.03,VWS V14.01,2013-09-14 01:05:00,
2013-09-13 21:10:00,59.8,50.8,29.83,NW,319,1.0,5.0,72,0.00,,---,0.03,VWS V14.01,2013-09-14 01:10:00,
2013-09-13 21:15:00,59.7,51.0,29.84,North,11,1.0,5.0,73,0.00,,---,0.03,VWS V14.01,2013-09-14 01:15:00,
2013-09-13 21:20:00,59.6,51.0,29.84,NW,321,1.0,6.0,73,0.00,,---,0.03,VWS V14.01,2013-09-14 01:20:00,
2013-09-13 21:25:00,59.5,50.8,29.84,NNW,330,2.0,6.0,73,0.00,,---,0.03,VWS V14.01,2013-09-14 01:25:00,
2013-09-13 21:30:00,59.5,50.5,29.85,NW,314,2.0,9.0,72,0.00,,---,0.03,VWS V14.01,2013-09-14 01:30:00,
2013-09-13 21:35:00,59.4,50.4,29.85,NW,314,0.0,5.0,72,0.00,,---,0.03,VWS V14.01,2013-09-14 01:35:00,
2013-09-13 21:40:00,59.3,50.3,29.85,West,259,1.0,7.0,72,0.00,,---,0.03,VWS V14.01,2013-09-14 01:40:00,
2013-09-13 21:45:00,59.2,50.9,29.85,SSW,198,2.0,7.0,74,0.00,,---,0.03,VWS V14.01,2013-09-14 01:45:00,
2013-09-13 21:50:00,59.1,50.1,29.85,WNW,298,3.0,7.0,72,0.00,,---,0.03,VWS V14.01,2013-09-14 01:50:00,
2013-09-13 21:55:00,59.0,50.4,29.85,NW,319,2.0,7.0,73,0.00,,---,0.03,VWS V14.01,2013-09-14 01:55:00,
2013-09-13 22:00:00,58.8,50.2,29.85,SW,235,2.0,7.0,73,0.00,,---,0.03,VWS V14.01,2013-09-14 02:00:00,
2013-09-13 22:05:00,58.6,50.3,29.85,West,280,3.0,3.0,74,0.00,,---,0.03,VWS V14.01,2013-09-14 02:05:00,
2013-09-13 22:10:00,58.5,50.6,29.85,East,100,0.0,9.0,75,0.00,,---,0.03,VWS V14.01,2013-09-14 02:10:00,
2013-09-13 22:15:00,58.4,50.2,29.85,West,276,1.0,9.0,74,0.00,,---,0.03,VWS V14.01,2013-09-14 02:15:00,
2013-09-13 22:20:00,58.4,50.2,29.86,NW,323,3.0,9.0,74,0.00,,---,0.03,VWS V14.01,2013-09-14 02:20:00,
2013-09-13 22:25:00,58.3,50.4,29.86,NW,315,2.0,9.0,75,0.00,,---,0.03,VWS V14.01,2013-09-14 02:25:00,
2013-09-13 22:30:00,58.0,50.1,29.86,NNE,15,0.0,9.0,75,0.00,,---,0.03,VWS V14.01,2013-09-14 02:30:00,
2013-09-13 22:35:00,57.9,50.0,29.86,NNW,328,2.0,8.0,75,0.00,,---,0.03,VWS V14.01,2013-09-14 02:35:00,
2013-09-13 22:40:00,57.8,49.9,29.86,West,269,1.0,8.0,75,0.00,,---,0.03,VWS V14.01,2013-09-14 02:40:00,
2013-09-13 22:45:00,57.7,49.8,29.86,WSW,237,0.0,8.0,75,0.00,,---,0.03,VWS V14.01,2013-09-14 02:45:00,
2013-09-13 22:50:00,57.5,50.0,29.86,WNW,290,2.0,8.0,76,0.00,,---,0.03,VWS V14.01,2013-09-14 02:50:00,
2013-09-13 22:55:00,57.4,49.9,29.86,West,273,0.0,8.0,76,0.00,,---,0.03,VWS V14.01,2013-09-14 02:55:00,
2013-09-13 23:00:00,57.3,49.8,29.87,West,270,0.0,8.0,76,0.00,,---,0.03,VWS V14.01,2013-09-14 03:00:00,
2013-09-13 23:05:00,57.1,49.6,29.87,West,270,0.0,1.0,76,0.00,,---,0.03,VWS V14.01,2013-09-14 03:05:00,
2013-09-13 23:10:00,56.9,49.8,29.87,West,259,1.0,1.0,77,0.00,,---,0.03,VWS V14.01,2013-09-14 03:10:00,
2013-09-13 23:15:00,56.7,49.6,29.87,WNW,291,1.0,3.0,77,0.00,,---,0.03,VWS V14.01,2013-09-14 03:15:00,
2013-09-13 23:20:00,56.7,49.6,29.87,NW,325,0.0,3.0,77,0.00,,---,0.03,VWS V14.01,2013-09-14 03:20:00,
2013-09-13 23:25:00,56.6,49.1,29.86,North,350,1.0,5.0,76,0.00,,---,0.03,VWS V14.01,2013-09-14 03:25:00,
2013-09-13 23:30:00,56.5,49.4,29.86,WNW,291,0.0,5.0,77,0.00,,---,0.03,VWS V14.01,2013-09-14 03:30:00,
2013-09-13 23:35:00,56.4,49.3,29.86,North,11,1.0,4.0,77,0.00,,---,0.03,VWS V14.01,2013-09-14 03:35:00,
2013-09-13 23:40:00,56.3,49.2,29.86,WSW,258,3.0,4.0,77,0.00,,---,0.03,VWS V14.01,2013-09-14 03:40:00,
2013-09-13 23:45:00,56.2,48.8,29.87,NNE,15,0.0,4.0,76,0.00,,---,0.03,VWS V14.01,2013-09-14 03:45:00,
2013-09-13 23:50:00,56.2,48.8,29.87,NW,325,2.0,4.0,76,0.00,,---,0.03,VWS V14.01,2013-09-14 03:50:00,
2013-09-13 23:55:00,56.1,49.0,29.87,NW,316,1.0,4.0,77,0.00,,---,0.03,VWS V14.01,2013-09-14 03:55:00,